GPS BIII-3 (PRN 23)

Last updated on Wed Sep 17 2025 00:03:17 GMT+0000 (Coordinated Universal Time)

1 45854U 20041A 25259.00808925 -.00000054 00000+0 00000+0 0 9996 2 45854 56.4882 39.6006 0057571 200.0692 158.3697 2.00563859 38535
UTC large
Height (km)
Speed (km/s)
/
Latitude / Longitude
Inclination (degrees)
Orbital Period (minutes)
Azimuth
Elevation
Range (km)
Doppler Factor

Next 0 passes for location: London (51.5072 / 0.1276)

Sorry there are no passes over London.